W3BRL Weather Reports


Display with metric or nautical units.
time (UTC)temp
F
wind
direction
speed
MPH
gust
MPH
rain 1hr
in
rain 24hr
in
rain mn
in
humidity
%
barometer
mb
20260509173601 58 213 6.0 8.0 0.00 0.22 0.22 78 1007.1
20260509173058 58 150 4.0 7.0 0.00 0.22 0.22 79 1007.2
20260509172555 58 183 5.0 6.0 0.00 0.22 0.22 77 1007.1
20260509172050 59 196 7.0 8.0 0.00 0.22 0.22 77 1006.9
20260509171546 59 172 9.0 13.0 0.00 0.22 0.22 78 1006.8
20260509171043 58 219 5.0 8.0 0.00 0.22 0.22 78 1006.8
20260509170539 58 192 5.0 9.0 0.00 0.22 0.22 77 1006.8
20260509170035 58 187 6.0 9.0 0.00 0.22 0.22 79 1006.8
20260509165534 59 217 6.0 7.0 0.00 0.22 0.22 78 1006.8
20260509165029 58 150 7.0 10.0 0.00 0.22 0.22 80 1006.9
20260509164526 57 204 6.0 8.0 0.00 0.22 0.22 82 1006.7
20260509164021 57 212 5.0 6.0 0.00 0.22 0.22 82 1006.7
20260509163519 57 195 9.0 11.0 0.00 0.22 0.22 86 1006.7
20260509163014 56 239 9.0 13.0 0.00 0.22 0.22 87 1006.6
20260509162512 56 186 3.0 4.0 0.00 0.22 0.22 92 1006.7
20260509162008 55 198 5.0 7.0 0.00 0.22 0.22 94 1006.8
20260509161504 54 178 4.0 6.0 0.00 0.22 0.22 94 1006.9
20260509160959 54 181 2.0 3.0 0.00 0.22 0.22 95 1006.8
20260509160455 53 170 6.0 7.0 0.00 0.22 0.22 95 1006.8
20260509155956 52 193 5.0 7.0 0.00 0.22 0.22 95 1006.8
20260509155453 52 206 6.0 8.0 0.00 0.22 0.22 94 1007.2
20260509154949 52 230 5.0 6.0 0.05 0.22 0.22 94 1007.1
20260509154445 52 202 4.0 6.0 0.05 0.22 0.22 94 1006.8
20260509153943 52 220 3.0 3.0 0.00 0.21 0.21 94 1006.9
20260509153439 52 210 5.0 7.0 0.00 0.21 0.21 94 1006.7
20260509152937 52 205 3.0 3.0 0.00 0.21 0.21 94 1006.5
20260509152432 52 185 2.0 2.0 0.00 0.21 0.21 94 1006.4
20260509151930 52 191 4.0 4.0 0.00 0.21 0.21 95 1006.6
20260509151426 52 194 4.0 4.0 0.00 0.21 0.21 95 1006.5
20260509150924 52 178 2.0 3.0 0.00 0.21 0.21 95 1006.8
20260509150421 52 192 6.0 9.0 0.00 0.21 0.21 95 1006.7
20260509145920 52 209 6.0 7.0 0.00 0.21 0.21 95 1006.8
20260509145419 52 197 8.0 9.0 0.00 0.21 0.21 95 1006.9
20260509144915 52 195 3.0 4.0 0.00 0.21 0.21 95 1006.8
20260509144412 52 202 4.0 7.0 0.00 0.21 0.21 95 1006.7
20260509143909 52 193 3.0 4.0 0.00 0.21 0.21 95 1006.7
20260509143407 52 211 6.0 8.0 0.07 0.21 0.21 95 1006.7
20260509142903 51 191 5.0 7.0 0.07 0.21 0.21 96 1006.6
20260509142359 51 198 3.0 4.0 0.00 0.20 0.20 96 1006.9
20260509141855 51 177 2.0 3.0 0.00 0.20 0.20 96 1006.8
20260509141352 51 117 5.0 7.0 0.00 0.20 0.20 96 1006.5
20260509140848 51 182 6.0 8.0 0.00 0.20 0.20 96 1006.8
20260509140346 51 179 4.0 7.0 0.00 0.20 0.20 96 1006.9
20260509135844 51 176 8.0 11.0 0.00 0.20 0.20 96 1006.9
20260509135341 51 161 8.0 9.0 0.00 0.20 0.20 96 1006.8
20260509134838 51 176 2.0 3.0 0.00 0.20 0.20 96 1006.9
20260509134335 51 177 4.0 6.0 0.00 0.20 0.20 96 1007.3
20260509133832 51 184 7.0 9.0 0.05 0.20 0.20 96 1007.2
20260509133329 51 179 5.0 6.0 0.05 0.20 0.20 96 1007.2
20260509132828 51 197 6.0 8.0 0.00 0.19 0.19 96 1007.2
20260509132326 51 161 4.0 4.0 0.07 0.19 0.19 96 1007.1
20260509131822 50 194 3.0 3.0 0.14 0.19 0.19 96 1007.1
20260509131319 50 151 5.0 6.0 0.12 0.18 0.18 96 1007.2
20260509130815 50 140 3.0 4.0 0.12 0.17 0.17 96 1007.1
20260509130311 50 175 4.0 4.0 0.12 0.16 0.16 96 1007.2
20260509125808 50 187 4.0 4.0 0.05 0.15 0.15 95 1007.1
20260509125307 50 215 7.0 8.0 0.00 0.14 0.14 95 1007.4
20260509124801 50 166 4.0 6.0 0.00 0.14 0.14 95 1007.3
20260509124257 50 176 2.0 3.0 0.12 0.14 0.14 95 1007.2
20260509123756 50 206 6.0 7.0 0.12 0.14 0.14 95 1007.4
20260509123253 50 206 6.0 8.0 0.12 0.13 0.13 95 1007.4
20260509122748 50 220 5.0 7.0 0.12 0.12 0.12 95 1007.5
20260509122245 50 178 5.0 7.0 0.12 0.11 0.11 94 1007.4
20260509121742 50 163 6.0 8.0 0.07 0.10 0.10 94 1007.3
20260509121239 50 192 6.0 7.0 0.07 0.10 0.10 94 1007.5
20260509120737 50 161 7.0 8.0 0.00 0.09 0.09 94 1007.2
20260509120235 50 199 3.0 3.0 0.05 0.09 0.09 94 1007.4
20260509115733 50 178 6.0 9.0 0.05 0.09 0.09 94 1007.5
20260509115230 50 182 7.0 9.0 0.07 0.08 0.08 93 1007.2
20260509114728 50 200 5.0 7.0 0.12 0.08 0.08 93 1007.2
20260509114226 50 202 7.0 9.0 0.12 0.07 0.07 93 1007.3
20260509113725 50 202 4.0 7.0 0.14 0.06 0.06 92 1007.1
20260509113222 50 200 6.0 8.0 0.07 0.05 0.05 92 1007.3
20260509112718 50 194 9.0 10.0 0.00 0.04 0.04 92 1007.1
20260509112216 50 158 8.0 10.0 0.00 0.04 0.04 92 1007.2
20260509111712 50 201 8.0 9.0 0.00 0.04 0.04 92 1007.2
20260509111209 50 181 7.0 9.0 0.05 0.04 0.04 92 1007.3
20260509110707 50 188 5.0 8.0 0.05 0.04 0.04 92 1007.1
20260509110203 50 161 5.0 6.0 0.05 0.04 0.04 92 1006.9
20260509105701 50 167 6.0 8.0 0.00 0.03 0.03 91 1006.8
20260509105158 50 202 4.0 6.0 0.00 0.03 0.03 91 1006.9
20260509104655 50 190 6.0 8.0 0.00 0.03 0.03 91 1006.9
20260509104152 50 175 4.0 6.0 0.00 0.03 0.03 91 1006.9
20260509103650 50 199 8.0 10.0 0.00 0.03 0.03 91 1006.9
20260509103148 50 206 7.0 9.0 0.00 0.03 0.03 92 1006.8
20260509102646 50 176 4.0 8.0 0.00 0.03 0.03 91 1007.1
20260509102142 50 211 7.0 9.0 0.00 0.03 0.03 92 1006.9
20260509101638 50 170 11.0 13.0 0.07 0.03 0.03 91 1006.6
20260509101135 50 134 7.0 9.0 0.07 0.03 0.03 91 1006.7
20260509100633 50 151 5.0 9.0 0.00 0.02 0.02 91 1006.7
20260509100130 50 208 6.0 7.0 0.00 0.02 0.02 90 1007.1
20260509095626 50 191 8.0 9.0 0.00 0.02 0.02 90 1006.9
20260509095124 50 192 5.0 6.0 0.00 0.02 0.02 90 1007.1
20260509094619 50 160 9.0 11.0 0.05 0.02 0.02 90 1007.2
20260509094117 50 187 3.0 4.0 0.05 0.02 0.02 90 1007.2
20260509093616 50 193 4.0 7.0 0.05 0.02 0.02 90 1007.2
20260509093112 50 186 4.0 4.0 0.00 0.01 0.01 90 1007.3
20260509092610 50 158 4.0 4.0 0.00 0.01 0.01 91 1007.3
20260509092108 50 148 3.0 3.0 0.00 0.01 0.01 92 1007.5
20260509091606 49 142 6.0 7.0 0.00 0.01 0.01 93 1007.5
20260509091102 49 197 4.0 6.0 0.07 0.01 0.01 94 1007.5
20260509090600 48 168 4.0 4.0 0.07 0.01 0.01 94 1007.5
20260509090057 48 155 2.0 2.0 0.00 0.00 0.00 94 1007.5
20260509085554 48 156 6.0 8.0 0.00 0.00 0.00 94 1007.6
20260509085050 48 151 3.0 4.0 0.00 0.00 0.00 94 1007.3
20260509084547 48 155 4.0 7.0 0.00 0.00 0.00 94 1007.4
20260509084044 48 148 4.0 4.0 0.00 0.00 0.00 93 1007.5
20260509083542 48 176 3.0 4.0 0.00 0.00 0.00 93 1007.4
20260509083038 48 162 4.0 4.0 0.00 0.00 0.00 93 1007.2
20260509082536 48 154 3.0 3.0 0.00 0.00 0.00 93 1007.3
20260509082033 48 167 1.0 2.0 0.00 0.00 0.00 93 1007.3
20260509081530 48 170 0.0 0.0 0.00 0.00 0.00 93 1007.5
20260509081027 48 167 0.0 0.0 0.00 0.00 0.00 92 1007.4
20260509080525 48 186 1.0 1.0 0.00 0.00 0.00 92 1007.4
20260509080023 48 194 2.0 2.0 0.00 0.00 0.00 92 1007.3
20260509075519 48 220 4.0 4.0 0.00 0.00 0.00 92 1007.4
20260509075018 48 182 1.0 1.0 0.00 0.00 0.00 92 1007.3
20260509074514 48 187 2.0 2.0 0.00 0.00 0.00 92 1006.9
20260509074011 48 190 1.0 1.0 0.00 0.00 0.00 91 1006.9
20260509073507 49 195 2.0 2.0 0.00 0.00 0.00 91 1006.9
20260509073004 49 176 0.0 0.0 0.00 0.00 0.00 90 1006.9
20260509072501 49 172 0.0 0.0 0.00 0.00 0.00 90 1006.8
20260509071957 49 172 0.0 0.0 0.00 0.00 0.00 90 1006.7
20260509071454 49 169 0.0 0.0 0.00 0.00 0.00 90 1006.8
20260509070952 49 166 1.0 1.0 0.00 0.00 0.00 89 1006.7
20260509070449 49 165 1.0 1.0 0.00 0.00 0.00 90 1006.9
20260509065944 49 145 3.0 3.0 0.00 0.00 0.00 90 1006.8
20260509065440 49 144 4.0 4.0 0.00 0.00 0.00 90 1006.9
20260509064936 49 155 2.0 3.0 0.00 0.00 0.00 90 1007.2
20260509064434 49 122 2.0 3.0 0.00 0.00 0.00 90 1007.1
20260509063933 49 135 2.0 3.0 0.00 0.00 0.00 90 1007.2
20260509063433 49 156 3.0 3.0 0.00 0.00 0.00 90 1007.4
20260509062930 49 162 5.0 6.0 0.00 0.00 0.00 90 1007.5
20260509062428 48 140 4.0 4.0 0.00 0.00 0.00 91 1007.6
20260509061925 48 165 1.0 1.0 0.00 0.00 0.00 91 1007.7
20260509061423 48 147 1.0 2.0 0.00 0.00 0.00 91 1007.6
20260509060919 48 170 2.0 2.0 0.00 0.00 0.00 91 1007.8
20260509060417 48 165 3.0 3.0 0.00 0.00 0.00 91 1008.0
20260509055911 48 165 4.0 7.0 0.00 0.00 0.00 91 1008.0
20260509055407 48 114 4.0 4.0 0.00 0.00 0.00 91 1007.9
20260509054904 48 159 3.0 4.0 0.00 0.00 0.00 92 1008.0
20260509054401 49 144 2.0 3.0 0.00 0.00 0.00 92 1008.0
20260509053859 49 166 0.0 0.0 0.00 0.00 0.00 92 1008.2
20260509053356 49 136 4.0 4.0 0.00 0.00 0.00 91 1008.3
20260509052855 49 151 2.0 3.0 0.00 0.00 0.00 91 1008.0
20260509052351 49 159 0.0 0.0 0.00 0.00 0.00 91 1008.2
20260509051849 49 170 1.0 1.0 0.00 0.00 0.00 91 1008.1
20260509051347 49 145 2.0 3.0 0.00 0.00 0.00 91 1008.2
20260509050843 49 129 4.0 4.0 0.00 0.00 0.00 91 1008.3
20260509050340 49 147 1.0 2.0 0.00 0.00 0.00 91 1008.2
20260509045837 49 153 2.0 3.0 0.00 0.00 0.00 91 1008.4
20260509045334 49 113 2.0 3.0 0.00 0.00 0.00 91 1008.4
20260509044831 49 170 0.0 0.0 0.00 0.00 0.00 91 1008.3
20260509044329 49 156 2.0 2.0 0.00 0.00 0.00 91 1008.4
20260509043825 49 149 1.0 2.0 0.00 0.00 0.00 90 1008.3
20260509043321 49 134 2.0 2.0 0.00 0.00 0.00 90 1008.4
20260509042817 49 100 2.0 3.0 0.00 0.00 0.00 90 1008.4
20260509042314 49 150 2.0 2.0 0.00 0.00 0.00 90 1008.7
20260509041810 49 145 2.0 3.0 0.00 0.00 0.00 90 1008.8
20260509041308 49 114 2.0 3.0 0.00 0.00 0.00 90 1009.0
20260509040806 49 129 2.0 2.0 0.00 0.00 0.00 90 1009.0
20260509040303 49 93 3.0 3.0 0.00 0.00 0.00 90 1008.9
20260509035800 49 135 2.0 3.0 0.00 0.02 0.02 91 1009.2
20260509035257 49 139 1.0 2.0 0.00 0.02 0.02 91 1009.3
20260509034753 49 159 2.0 2.0 0.00 0.02 0.02 91 1009.3
20260509034251 49 121 2.0 3.0 0.00 0.02 0.02 91 1009.3
20260509033748 49 130 1.0 2.0 0.00 0.02 0.02 91 1009.4
20260509033245 49 165 0.0 1.0 0.00 0.02 0.02 91 1009.7
20260509032742 49 160 0.0 0.0 0.00 0.02 0.02 90 1009.5
20260509032239 49 163 0.0 1.0 0.00 0.02 0.02 90 1009.9
20260509031736 49 166 0.0 0.0 0.00 0.02 0.02 90 1009.7
20260509031234 49 153 1.0 2.0 0.00 0.02 0.02 89 1009.9
20260509030731 50 131 1.0 2.0 0.00 0.02 0.02 89 1009.9
20260509030229 50 168 0.0 0.0 0.00 0.02 0.02 88 1010.0
20260509025726 50 157 1.0 1.0 0.05 0.02 0.02 87 1010.0
20260509025221 50 177 0.0 0.0 0.05 0.02 0.02 87 1010.2
20260509024717 50 177 0.0 0.0 0.00 0.01 0.01 86 1010.3
20260509024213 50 180 1.0 1.0 0.00 0.01 0.01 86 1010.2
20260509023710 50 172 0.0 0.0 0.00 0.01 0.01 85 1010.3
20260509023207 50 138 2.0 3.0 0.00 0.01 0.01 86 1010.1
20260509022703 50 170 0.0 0.0 0.00 0.01 0.01 86 1010.2
20260509022201 50 134 2.0 2.0 0.00 0.01 0.01 85 1010.1
20260509021658 50 161 0.0 0.0 0.07 0.01 0.01 86 1009.7
20260509021155 51 172 0.0 0.0 0.07 0.01 0.01 85 1010.0
20260509020653 51 164 2.0 2.0 0.00 0.00 0.00 84 1009.7
20260509020150 50 165 1.0 1.0 0.00 0.00 0.00 84 1009.6
20260509015649 51 174 0.0 0.0 0.00 0.00 0.00 85 1009.4
20260509015146 51 160 0.0 0.0 0.00 0.00 0.00 85 1009.3
20260509014642 51 151 1.0 2.0 0.00 0.00 0.00 84 1009.4
20260509014139 51 40 3.0 3.0 0.00 0.00 0.00 84 1009.3
20260509013636 51 154 1.0 1.0 0.00 0.00 0.00 84 1009.3
20260509013131 51 164 0.0 1.0 0.00 0.00 0.00 83 1009.3
20260509012628 51 176 2.0 2.0 0.00 0.00 0.00 83 1009.2
20260509012125 51 138 3.0 4.0 0.00 0.00 0.00 83 1009.1
20260509011623 51 98 3.0 3.0 0.00 0.00 0.00 83 1008.9
20260509011120 51 164 1.0 1.0 0.00 0.00 0.00 83 1008.9
20260509010618 51 170 1.0 2.0 0.00 0.00 0.00 82 1009.0
20260509010114 52 163 0.0 0.0 0.00 0.00 0.00 82 1008.7
20260509005612 52 135 1.0 2.0 0.00 0.00 0.00 81 1008.8
20260509005107 52 189 3.0 3.0 0.00 0.00 0.00 81 1008.6
20260509004604 52 125 1.0 2.0 0.00 0.00 0.00 79 1008.6
20260509004101 52 166 0.0 0.0 0.00 0.00 0.00 79 1008.6
20260509003559 52 175 1.0 2.0 0.00 0.00 0.00 80 1008.6
20260509003056 52 112 3.0 4.0 0.00 0.00 0.00 80 1008.7
20260509002554 52 157 2.0 2.0 0.00 0.00 0.00 80 1008.5
20260509002051 52 139 2.0 2.0 0.00 0.00 0.00 80 1008.6
20260509001548 53 109 4.0 4.0 0.00 0.00 0.00 79 1008.7
20260509001044 53 152 3.0 3.0 0.00 0.00 0.00 78 1008.4
20260509000543 53 144 1.0 2.0 0.00 0.00 0.00 78 1008.7
20260509000038 53 157 2.0 2.0 0.00 0.00 0.00 78 1008.7
20260508235536 53 166 1.0 2.0 0.00 0.00 0.00 77 1008.6
20260508235032 53 159 0.0 0.0 0.00 0.00 0.00 78 1008.6
20260508234530 53 121 3.0 3.0 0.00 0.00 0.00 78 1008.6
20260508234027 53 165 1.0 2.0 0.00 0.00 0.00 78 1008.8
20260508233526 53 147 0.0 1.0 0.00 0.00 0.00 78 1008.7
20260508233023 53 167 0.0 0.0 0.00 0.00 0.00 77 1009.2
20260508232520 54 159 1.0 1.0 0.00 0.00 0.00 76 1008.8
20260508232017 54 157 1.0 1.0 0.00 0.00 0.00 76 1008.8
20260508231514 54 142 1.0 2.0 0.00 0.00 0.00 76 1008.8
20260508231011 54 162 0.0 1.0 0.00 0.00 0.00 75 1008.6
20260508230508 54 158 1.0 1.0 0.00 0.00 0.00 75 1008.6
20260508230005 54 165 0.0 0.0 0.00 0.00 0.00 75 1008.8
20260508225502 54 151 3.0 3.0 0.00 0.00 0.00 73 1008.9
20260508224959 54 161 0.0 1.0 0.00 0.00 0.00 73 1008.9
20260508224456 54 123 0.0 1.0 0.00 0.00 0.00 73 1009.0
20260508223953 54 158 1.0 1.0 0.00 0.00 0.00 72 1008.9
20260508223451 54 69 4.0 4.0 0.00 0.00 0.00 69 1009.0
20260508222948 55 128 2.0 3.0 0.00 0.00 0.00 66 1008.9
20260508222446 55 163 1.0 2.0 0.00 0.00 0.00 65 1008.8
20260508221942 55 170 0.0 0.0 0.00 0.00 0.00 66 1008.7
20260508221438 56 182 0.0 0.0 0.00 0.00 0.00 64 1008.8
20260508220934 56 174 0.0 0.0 0.00 0.00 0.00 62 1008.9
20260508220431 56 180 1.0 1.0 0.00 0.00 0.00 61 1008.9
20260508215927 56 199 2.0 2.0 0.00 0.00 0.00 59 1008.9
20260508215425 56 182 1.0 1.0 0.00 0.00 0.00 61 1008.9
20260508214921 56 183 2.0 2.0 0.00 0.00 0.00 60 1008.9
20260508214419 56 187 2.0 2.0 0.00 0.00 0.00 61 1008.8
20260508213914 56 182 2.0 2.0 0.00 0.00 0.00 60 1008.8
20260508213412 56 183 4.0 6.0 0.00 0.00 0.00 60 1008.8
20260508212908 56 184 2.0 2.0 0.00 0.00 0.00 61 1008.9
20260508212404 56 175 1.0 2.0 0.00 0.00 0.00 61 1008.9
20260508211900 56 175 2.0 3.0 0.00 0.00 0.00 61 1008.8
20260508211356 56 175 2.0 3.0 0.00 0.00 0.00 62 1009.2
20260508210854 56 191 0.0 1.0 0.00 0.00 0.00 63 1009.1
20260508210350 55 172 0.0 0.0 0.00 0.00 0.00 64 1009.1
20260508205847 55 185 2.0 2.0 0.00 0.00 0.00 63 1009.2
20260508205343 56 193 4.0 4.0 0.00 0.00 0.00 66 1009.2
20260508204839 55 176 2.0 2.0 0.00 0.00 0.00 67 1009.3
20260508204337 55 178 0.0 0.0 0.00 0.00 0.00 69 1009.4
20260508203832 55 178 1.0 1.0 0.00 0.00 0.00 69 1009.4
20260508203329 55 191 3.0 3.0 0.00 0.00 0.00 68 1009.4
20260508202824 55 183 1.0 1.0 0.00 0.00 0.00 68 1009.6
20260508202322 55 183 4.0 6.0 0.00 0.00 0.00 68 1009.6
20260508201819 55 206 1.0 2.0 0.00 0.00 0.00 67 1009.7
20260508201316 55 200 3.0 4.0 0.00 0.00 0.00 66 1009.9
20260508200813 55 168 1.0 2.0 0.00 0.00 0.00 66 1010.0
20260508200309 55 176 0.0 1.0 0.00 0.00 0.00 66 1010.2
20260508195805 55 168 1.0 2.0 0.00 0.00 0.00 65 1010.3
20260508195305 55 236 3.0 4.0 0.00 0.00 0.00 66 1010.4
20260508194758 55 208 4.0 4.0 0.00 0.00 0.00 65 1010.4
20260508194255 55 198 3.0 4.0 0.00 0.00 0.00 63 1010.6
20260508193753 55 270 7.0 8.0 0.00 0.00 0.00 61 1010.5
20260508193249 55 247 8.0 10.0 0.00 0.00 0.00 60 1010.6
20260508192745 56 197 2.0 3.0 0.00 0.00 0.00 61 1010.6
20260508192243 56 302 6.0 7.0 0.00 0.00 0.00 59 1010.5
20260508191740 56 241 6.0 9.0 0.00 0.00 0.00 58 1010.4
20260508191237 57 204 4.0 6.0 0.00 0.00 0.00 58 1010.5
20260508190734 57 204 4.0 6.0 0.00 0.00 0.00 57 1010.4
20260508190230 57 232 5.0 6.0 0.00 0.00 0.00 56 1010.5
20260508185727 57 205 6.0 11.0 0.00 0.00 0.00 57 1010.4
20260508185224 57 271 5.0 8.0 0.00 0.00 0.00 54 1010.5
20260508184721 58 214 6.0 9.0 0.00 0.00 0.00 53 1010.3
20260508184218 58 201 7.0 11.0 0.00 0.00 0.00 51 1010.4
20260508183715 59 224 6.0 7.0 0.00 0.00 0.00 51 1010.3
20260508183211 58 216 6.0 8.0 0.00 0.00 0.00 50 1010.2
20260508182707 58 271 7.0 14.0 0.00 0.00 0.00 50 1010.3
20260508182204 59 40 9.0 13.0 0.00 0.00 0.00 50 1010.1
20260508181700 58 282 10.0 15.0 0.00 0.00 0.00 51 1010.2
20260508181157 58 267 9.0 15.0 0.00 0.00 0.00 51 1010.3
20260508180654 58 172 8.0 13.0 0.00 0.00 0.00 50 1010.3
20260508180151 58 197 8.0 11.0 0.00 0.00 0.00 50 1010.1
20260508175647 59 280 10.0 13.0 0.00 0.00 0.00 49 1010.1
20260508175144 59 219 9.0 13.0 0.00 0.00 0.00 49 1010.1
20260508174642 59 229 12.0 16.0 0.00 0.00 0.00 49 1010.2
20260508174138 59 204 11.0 13.0 0.00 0.00 0.00 49 1010.2